Back to catalog

METEOR 2-5 DEB

AlivePO
NORAD 45508·DEBRIS·🇷🇺 Russia

Launched Oct 31, 1979 from Plesetsk Cosmodrome

Loading…

Next Passes (next 24 hours)

TLE

AgingSource: Space-Track

Epoch: Sep 4, 2026, 18:40 UTC

1 45508U 79095CQ  26247.77827418  .00003991  00000-0  11399-2 0  9994
2 45508  81.1789  48.5640 0006828 150.4926 209.6650 14.45014895 59560

Track METEOR 2-5 DEB in real time with AllMySat

Download on the App Store